Location: Im Fang
(46.6019°N, 7.2397°E)
Time: 04:15:08
(UTC+00:00)

Cosmos 2242 Rocket - Pass Details

Date: 08 December 2019
Orbit: 617 x 652 km, 82.5° (Epoch: 22 January)

Event Time Altitude Azimuth Distance (km) Brightness Sun altitude
Exits shadow 05:21:37 30° 282° (WNW) 1,164 4.4 -16.5°
Maximum altitude 05:22:04 30° 271° (W) 1,147 4.4 -16.4°
Drops below altitude 10° 05:26:01 10° 210° (SSW) 2,027 6.1 -15.7°
Sets 05:28:25 0° 199° (SSW) 2,925 7.0 -15.3°
